This is the latest recevied weather packets stored in our database for station/object N5JXS. If no packets are shown the sender has not sent any weather packets the latest 10 day(s).
| Time | Temp. | Humidity | Pressure | Rain* | Wind** | Luminosity | Snow |
|---|---|---|---|---|---|---|---|
| 1787840699 | 15° C | 79% | 1031.9 hPa | 0 mm | - | 67 W/m² | - |
| 1787840394 | 14.44° C | 80% | 1031.9 hPa | 0 mm | - | 67 W/m² | - |
| 1787840089 | 14.44° C | 79% | 1032.1 hPa | 0 mm | - | 44 W/m² | - |
| 1787839784 | 14.44° C | 78% | 1032.1 hPa | 0 mm | - | 30 W/m² | - |
| 1787839483 | 14.44° C | 78% | 1031.8 hPa | 0 mm | - | 23 W/m² | - |
| 1787839183 | 14.44° C | 79% | 1032.2 hPa | 0 mm | - | 22 W/m² | - |
| 1787838883 | 14.44° C | 78% | 1031.9 hPa | 0 mm | - | 32 W/m² | - |
| 1787838577 | 13.89° C | 79% | 1031.8 hPa | 0 mm | - | 48 W/m² | - |
| 1787838276 | 13.89° C | 79% | 1031.7 hPa | 0 mm | - | 41 W/m² | - |
| 1787837975 | 13.89° C | 79% | 1031.9 hPa | 0 mm | - | 32 W/m² | - |
| 1787837675 | 13.89° C | 79% | 1031.7 hPa | 0 mm | - | 23 W/m² | - |
| 1787837370 | 13.89° C | 79% | 1031.7 hPa | 0 mm | - | 20 W/m² | - |
| 1787837065 | 13.89° C | 80% | 1031.8 hPa | 0 mm | - | 18 W/m² | - |
| 1787836764 | 13.33° C | 81% | 1031.6 hPa | 0 mm | - | 18 W/m² | - |
| 1787836459 | 13.33° C | 81% | 1031.6 hPa | 0 mm | - | 18 W/m² | - |
| 1787836154 | 13.33° C | 83% | 1031.6 hPa | 0 mm | - | 19 W/m² | - |
| 1787835854 | 13.33° C | 83% | 1031.4 hPa | 0 mm | - | 14 W/m² | - |
| 1787835549 | 13.33° C | 83% | 1031.4 hPa | 0 mm | - | 13 W/m² | - |
| 1787835244 | 13.33° C | 82% | 1031.4 hPa | 0 mm | - | 12 W/m² | - |
| 1787834940 | 13.33° C | 82% | 1031.4 hPa | 0 mm | - | 11 W/m² | - |
| 1787834639 | 13.33° C | 82% | 1031.7 hPa | 0 mm | - | 8 W/m² | - |
| 1787834334 | 13.33° C | 82% | 1031.6 hPa | 0 mm | - | 4 W/m² | - |
| 1787834029 | 13.89° C | 81% | 1031.4 hPa | 0 mm | - | 2 W/m² | - |
| 1787833725 | 13.89° C | 80% | 1031.4 hPa | 0 mm | - | 0 W/m² | - |
| 1787833420 | 13.89° C | 80% | 1031.4 hPa | 0 mm | - | 0 W/m² | - |
* Rain latest hour (hover to see other rain measurements)
** Current wind speed in m/s (hover to see current wind gust speed)